Location: Unspecified
(64.9000°N, 0.0000°E)
Time: 19:08:19
(UTC+00:00)

Vanguard 2 - Visible Passes

Search period start: 07 August 2020 00:00
Search period end: 17 August 2020 00:00
Orbit: 553 x 2938 km, 32.9° (Epoch: 07 August)

Date Brightness Start Highest point End Pass type
(mag) Time Alt. Az. Time Alt. Az. Time Alt. Az.
10 Aug 10.8 22:24:31 10° SSW 22:25:32 10° S 22:26:32 10° S visible
11 Aug 10.8 22:40:40 10° SSW 22:42:27 10° SSW 22:44:09 10° S visible
12 Aug 10.9 22:58:19 10° SSW 22:59:18 10° SSW 23:00:16 10° SSW visible
14 Aug 11.0 21:19:48 10° SSW 21:26:14 14° S 21:31:57 10° SSE visible
15 Aug 11.0 21:36:39 10° SW 21:43:06 14° SSW 21:48:50 10° S visible
16 Aug 11.0 21:53:54 10° SW 21:59:54 13° SSW 22:05:19 10° S visible
